Location: Deneb Observatory
(47.2267°N, 100.4953°W)
Time: 16:47:55
(UTC-05:00)

Amateur Radio Satellites - All Passes

Search period start: 02 September 2015 16:17
Search period end: 03 September 2015 16:17
Location: Deneb Observatory, 47.2267°N, 100.4953°W

Satellite Date Start Highest point End Downlink Frequencies (MHz)
Time Altitude Azimuth
HORYU 2 02 Sep 16:29:04 16:33:30 62° 72° (ENE) 16:37:59 437.375
ITUPSAT 1 02 Sep 16:41:51 16:46:08 33° 294° (WNW) 16:50:22 437.325
Gurwin Techsat 1B 02 Sep 16:46:13 16:49:19 15° 274° (W) 16:52:11 435.225
BEESAT 3 02 Sep 16:50:36 16:54:26 38° 315° (NW) 16:58:18 437.485
ITAMSAT 1 02 Sep 16:52:59 16:55:58 15° 273° (W) 16:58:44 435.822/435.867
BEESAT 2 02 Sep 17:05:38 17:09:28 37° 316° (NW) 17:13:20 435.950
Cubesat XI-IV 02 Sep 17:08:40 17:10:04 11° 53° (NE) 17:11:43 437.490
BEESAT 02 Sep 17:14:34 17:17:51 18° 300° (WNW) 17:21:01 436.000
JAS-2 02 Sep 17:27:06 17:33:18 24° 274° (W) 17:39:19 435.910
STARS 02 Sep 17:29:05 17:33:34 84° 285° (WNW) 17:38:01 437.465
SWISSCUBE 02 Sep 17:42:46 17:43:47 10° 305° (NW) 17:44:33 437.505
Cosmos 2499 02 Sep 17:44:02 17:51:43 36° 276° (W) 17:58:49 435.465 / 435.565
CUTE-I 02 Sep 17:49:52 17:53:55 23° 61° (ENE) 17:58:06 437.470
KKS-1 02 Sep 17:53:06 17:57:08 32° 293° (WNW) 18:01:05 437.445
AIST 2 02 Sep 17:54:58 17:59:08 52° 312° (NW) 18:03:19 435.215
AO-7 02 Sep 18:01:41 18:08:58 31° 267° (W) 18:16:04 29.400- 29.500
HORYU 2 02 Sep 18:07:47 18:10:37 16° 271° (W) 18:13:17 437.375
MOZHAYETS 4 02 Sep 18:19:13 18:23:49 85° 103° (ESE) 18:28:22
RS-15 02 Sep 18:21:45 18:32:46 72° 313° (NW) 18:44:20 29.354- 29.394
BEESAT 3 02 Sep 18:32:30 18:33:29 11° 337° (NNW) 18:34:24 437.485
Cosmos 2491 02 Sep 18:35:37 18:39:44 14° 47° (NE) 18:44:19 435.465 / 435.565
AIST 1 02 Sep 18:40:25 18:42:44 14° 64° (ENE) 18:45:13
CUBESAT XI-V 02 Sep 18:42:37 18:45:21 16° 88° (E) 18:48:17 437.345
Cubesat XI-IV 02 Sep 18:44:01 18:49:14 62° 71° (ENE) 18:54:31 437.490
BEESAT 2 02 Sep 18:47:48 18:48:41 10° 338° (NNW) 18:49:28 435.950
STARS 02 Sep 19:07:38 19:09:21 12° 302° (WNW) 19:10:51 437.465
HO-68 02 Sep 19:09:35 19:13:50 18° 48° (NE) 19:18:20 435.675
O/OREOS (USA 219) 02 Sep 19:15:04 19:19:01 31° 106° (ESE) 19:23:04 437.305
STRAND 1 02 Sep 19:22:24 19:23:30 11° 84° (E) 19:24:56 437.568
CUTE-I 02 Sep 19:28:25 19:33:39 59° 259° (W) 19:38:55 437.470
BRITE-PL 02 Sep 19:29:15 19:33:03 28° 65° (ENE) 19:37:12 437.365/2234.400
AIST 2 02 Sep 19:36:33 19:38:40 13° 334° (NNW) 19:40:42 435.215
GOMX 1 02 Sep 19:47:39 19:51:30 26° 64° (ENE) 19:55:39 467.674
CUTE 1.7 + AOD 2 02 Sep 19:50:45 19:52:03 11° 59° (ENE) 19:53:33 437.475
DOVE 4 02 Sep 19:51:46 19:55:05 19° 61° (ENE) 19:58:41 437.250
PRISM 02 Sep 19:52:52 19:54:25 12° 88° (E) 19:56:11 437.425
MOZHAYETS 4 02 Sep 19:58:07 20:00:26 14° 301° (WNW) 20:02:34
CANX-2 02 Sep 20:03:34 20:06:14 17° 63° (ENE) 20:09:01 2200.000
AIST 1 02 Sep 20:16:37 20:20:55 65° 264° (W) 20:25:13
CUBESAT XI-V 02 Sep 20:18:41 20:23:18 65° 286° (WNW) 20:27:55 437.345
SEEDS 02 Sep 20:21:02 20:23:52 18° 63° (ENE) 20:26:48 437.485
CINEMA 3 02 Sep 20:22:14 20:25:23 18° 60° (ENE) 20:28:43 145.822/145.860
Cubesat XI-IV 02 Sep 20:25:51 20:29:50 20° 270° (W) 20:33:41 437.490
Cosmos 2491 02 Sep 20:30:31 20:39:08 58° 74° (ENE) 20:47:46 435.465 / 435.565
RS-15 02 Sep 20:37:26 20:47:33 36° 344° (NNW) 20:58:04 29.354- 29.394
COMPASS 1 02 Sep 20:39:02 20:42:10 21° 65° (ENE) 20:45:23 437.405
YUBILEINY 02 Sep 20:42:47 20:49:32 27° 81° (E) 20:56:35 435.215
AAUSAT CUBESAT 2 02 Sep 20:47:18 20:50:28 22° 65° (ENE) 20:53:43 437.432
HO-68 02 Sep 20:53:21 21:00:26 69° 69° (ENE) 21:07:36 435.675
O/OREOS (USA 219) 02 Sep 20:54:13 20:58:24 34° 305° (NW) 21:02:37 437.305
STRAND 1 02 Sep 20:58:32 21:03:41 79° 105° (ESE) 21:08:48 437.568
BRITE-PL 02 Sep 21:07:17 21:11:28 37° 265° (W) 21:15:56 437.365/2234.400
CUTE 1.7 + AOD 2 02 Sep 21:23:03 21:27:21 88° 77° (ENE) 21:31:39 437.475
GOMX 1 02 Sep 21:25:01 21:29:25 42° 264° (W) 21:34:08 467.674
ZACube-1 02 Sep 21:25:34 21:28:46 20° 63° (ENE) 21:32:08 437.345
PRISM 02 Sep 21:26:17 21:30:23 69° 287° (WNW) 21:34:29 437.425
DOVE 4 02 Sep 21:27:40 21:32:20 64° 260° (W) 21:37:21 437.250
FUNcube-1 02 Sep 21:29:48 21:33:08 21° 63° (ENE) 21:36:35 145.935
CUBEBUG 2 02 Sep 21:33:42 21:37:57 36° 68° (ENE) 21:42:20 437.445
UWE-3 02 Sep 21:36:22 21:40:24 31° 67° (ENE) 21:44:32 435.000/436.395/437.385
CANX-2 02 Sep 21:37:30 21:41:45 59° 260° (W) 21:46:00 2200.000
BEESAT 3 02 Sep 21:51:38 21:53:09 12° 25° (NNE) 21:54:45 437.485
HUMSAT D 02 Sep 21:53:28 21:55:51 15° 61° (ENE) 21:58:22 437.325/437.525
SEEDS 02 Sep 21:55:09 21:59:19 53° 260° (W) 22:03:29 437.485
CINEMA 3 02 Sep 21:57:16 22:02:01 71° 258° (WSW) 22:07:00 145.822/145.860
BEESAT 2 02 Sep 22:06:50 22:08:35 12° 26° (NNE) 22:10:23 435.950
DX 1 02 Sep 22:10:41 22:12:53 14° 60° (ENE) 22:15:15 434.975-435.025
Oscar 11 02 Sep 22:12:25 22:16:45 74° 75° (ENE) 22:21:07 145.826/435.025
COMPASS 1 02 Sep 22:13:35 22:17:36 42° 262° (W) 22:21:37 437.405
UKube-1 02 Sep 22:19:29 22:21:56 15° 60° (ENE) 22:24:33 .
AAUSAT CUBESAT 2 02 Sep 22:21:52 22:25:50 40° 262° (W) 22:29:48 437.432
Cosmos 2491 02 Sep 22:27:55 22:35:41 36° 275° (W) 22:43:20 435.465 / 435.565
DELFI C3 02 Sep 22:29:59 22:34:01 75° 75° (ENE) 22:38:04 145.870
YUBILEINY 02 Sep 22:36:47 22:45:35 76° 282° (WNW) 22:54:29 435.215
ESTCUBE 1 02 Sep 22:36:55 22:38:56 13° 59° (ENE) 22:41:08 437.505/2401.250
CUBEBUG 1 02 Sep 22:37:08 22:37:43 10° 57° (ENE) 22:38:30 437.445
STRAND 1 02 Sep 22:39:01 22:42:20 17° 302° (WNW) 22:45:29 437.568
AISAT 02 Sep 22:40:48 22:43:49 19° 62° (ENE) 22:46:57 437.250
HO-68 02 Sep 22:42:51 22:48:49 27° 269° (W) 22:54:39 435.675
RS-15 02 Sep 22:53:34 23:03:57 37° 17° (NNE) 23:14:50 29.354- 29.394
50 SAT 02 Sep 22:53:50 22:56:59 24° 67° (ENE) 23:00:13 437.505
UNISAT 6 02 Sep 22:56:14 22:57:11 11° 84° (E) 22:58:23 437.425
AIST 2 02 Sep 22:58:26 22:59:40 11° 22° (NNE) 23:01:00 435.215
ZACube-1 02 Sep 23:00:15 23:04:46 56° 261° (W) 23:09:19 437.345
FUNcube-1 02 Sep 23:04:39 23:09:07 52° 261° (W) 23:13:38 145.935
VELOX 1 02 Sep 23:07:22 23:11:11 30° 67° (ENE) 23:15:07 145.980
CUBEBUG 2 02 Sep 23:10:33 23:14:41 30° 267° (W) 23:18:51 437.445
UWE-3 02 Sep 23:12:36 23:16:51 34° 265° (W) 23:21:08 435.000/436.395/437.385
Cosmos 2504 02 Sep 23:20:01 23:27:13 36° 84° (E) 23:34:52 435.465 / 435.565
TIGRISAT 02 Sep 23:22:02 23:25:16 19° 90° (E) 23:28:33 435.000
HUMSAT D 02 Sep 23:26:46 23:31:06 70° 259° (W) 23:35:26 437.325/437.525
BEESAT 3 02 Sep 23:28:08 23:32:04 47° 47° (NE) 23:35:57 437.485
POLYITAN 1 02 Sep 23:39:20 23:40:06 11° 85° (E) 23:41:06 437.675
ANTELSAT 02 Sep 23:39:35 23:43:35 29° 94° (E) 23:47:30 437.575/2403.000
POPSAT HIP 1 02 Sep 23:40:52 23:41:47 11° 85° (E) 23:42:55 437.405
BEESAT 2 02 Sep 23:43:35 23:47:34 50° 48° (NE) 23:51:30 435.950
DX 1 02 Sep 23:44:17 23:48:36 76° 257° (WSW) 23:52:59 434.975-435.025
Oscar 11 02 Sep 23:51:35 23:53:32 12° 274° (W) 23:55:17 145.826/435.025
UKube-1 02 Sep 23:53:18 23:57:36 67° 258° (WSW) 00:01:56 .
NANOSAT C BR1 02 Sep 23:56:14 23:58:47 16° 89° (E) 00:01:29 145.865
SPROUT 02 Sep 23:56:51 00:00:01 21° 64° (ENE) 00:03:16 437.525
QB50P2 02 Sep 23:56:56 23:59:40 17° 89° (E) 00:02:32 145.880/145.840
DANDE 03 Sep 00:02:56 00:04:33 12° 78° (ENE) 00:06:33 436.750
DELFI C3 03 Sep 00:08:30 00:09:39 11° 274° (W) 00:10:35 145.870
CUBEBUG 1 03 Sep 00:09:03 00:13:21 77° 75° (ENE) 00:17:43 437.445
QB50P1 03 Sep 00:10:19 00:13:40 22° 92° (E) 00:17:04 145.935-145.965
ESTCUBE 1 03 Sep 00:10:43 00:15:12 85° 256° (WSW) 00:19:44 437.505/2401.250
AISAT 03 Sep 00:15:41 00:20:01 55° 260° (W) 00:24:25 437.250
50 SAT 03 Sep 00:27:46 00:31:23 33° 264° (W) 00:34:58 437.505
SO-50 03 Sep 00:29:25 00:31:15 12° 109° (ESE) 00:33:20 436.795
UNISAT 6 03 Sep 00:30:09 00:34:46 89° 285° (WNW) 00:39:14 437.425
AIST 2 03 Sep 00:35:26 00:39:24 39° 44° (NE) 00:43:19 435.215
YUBILEINY 03 Sep 00:38:06 00:44:19 20° 307° (NW) 00:50:11 435.215
VELOX 1 03 Sep 00:43:48 00:47:44 31° 265° (W) 00:51:39 145.980
AUBIESAT-1 03 Sep 00:49:20 00:53:17 69° 107° (ESE) 00:56:54 437.475
TISAT 1 03 Sep 00:50:43 00:54:39 40° 70° (ENE) 00:58:39 437.305
M-CUBED/EXP-1 PRIME 03 Sep 00:56:58 01:01:00 82° 290° (WNW) 01:04:40 437.505
CUSAT 1 03 Sep 00:57:06 01:01:21 73° 98° (E) 01:07:09 437.405
TIGRISAT 03 Sep 00:57:54 01:02:22 50° 289° (WNW) 01:06:41 435.000
BEESAT 3 03 Sep 01:06:37 01:09:44 21° 245° (WSW) 01:12:43 437.485
RS-15 03 Sep 01:07:01 01:18:47 73° 47° (NE) 01:31:01 29.354- 29.394
BUGSAT 1 03 Sep 01:09:37 01:13:49 55° 100° (E) 01:18:01 437.445
BEESAT 03 Sep 01:09:53 01:12:36 16° 59° (ENE) 01:15:29 436.000
Cosmos 2504 03 Sep 01:10:56 01:19:05 59° 286° (WNW) 01:27:36 435.465 / 435.565
DUCHIFAT 1 03 Sep 01:12:18 01:16:38 90° 288° (WNW) 01:20:54 145.980
POLYITAN 1 03 Sep 01:12:21 01:16:42 85° 285° (WNW) 01:21:00 437.675
POPSAT HIP 1 03 Sep 01:14:00 01:18:20 84° 285° (WNW) 01:22:37 437.405
ANTELSAT 03 Sep 01:16:15 01:20:23 33° 293° (WNW) 01:24:23 437.575/2403.000
PCSat 03 Sep 01:20:18 01:23:20 16° 106° (ESE) 01:26:36 145.827
BEESAT 2 03 Sep 01:22:17 01:25:18 20° 246° (WSW) 01:28:12 435.950
NANOSAT C BR1 03 Sep 01:30:48 01:35:02 57° 288° (WNW) 01:39:13 145.865
SPROUT 03 Sep 01:31:39 01:35:48 46° 261° (W) 01:39:59 437.525
QB50P2 03 Sep 01:31:42 01:35:55 53° 289° (WNW) 01:40:06 145.880/145.840
SWISSCUBE 03 Sep 01:34:44 01:38:40 27° 65° (ENE) 01:42:41 437.505
GONETS M04 03 Sep 01:35:37 01:37:59 12° 71° (ENE) 01:41:00
DANDE 03 Sep 01:42:42 01:46:33 66° 285° (WNW) 01:51:47 436.750
QB50P1 03 Sep 01:45:38 01:49:42 40° 290° (WNW) 01:53:42 145.935-145.965
CUBEBUG 1 03 Sep 01:48:37 01:50:21 12° 274° (W) 01:51:52 437.445
SO-50 03 Sep 02:06:13 02:11:03 81° 127° (SE) 02:16:02 436.795
UNISAT 6 03 Sep 02:08:46 02:10:52 13° 302° (WNW) 02:12:46 437.425
ITUPSAT 1 03 Sep 02:13:37 02:18:15 53° 70° (ENE) 02:22:55 437.325
AIST 2 03 Sep 02:14:14 02:17:51 28° 243° (WSW) 02:21:21 435.215
Oscar 19 03 Sep 02:16:44 02:20:44 23° 91° (E) 02:24:50 437.125/150
AUBIESAT-1 03 Sep 02:25:23 02:27:27 14° 307° (NW) 02:29:19 437.475
TISAT 1 03 Sep 02:27:17 02:30:36 21° 268° (W) 02:33:51 437.305
M-CUBED/EXP-1 PRIME 03 Sep 02:34:08 02:35:02 11° 310° (NW) 02:35:47 437.505
CUSAT 1 03 Sep 02:41:45 02:45:02 17° 307° (NW) 02:48:43 437.405
BEESAT 03 Sep 02:45:07 02:49:54 79° 257° (WSW) 02:54:41 436.000
BUGSAT 1 03 Sep 02:45:59 02:48:55 18° 297° (WNW) 02:51:44 437.445
DUCHIFAT 1 03 Sep 02:50:10 02:51:48 12° 301° (WNW) 02:53:15 145.980
POLYITAN 1 03 Sep 02:50:31 02:51:56 11° 302° (WNW) 02:53:10 437.675
POPSAT HIP 1 03 Sep 02:52:12 02:53:32 11° 302° (WNW) 02:54:40 437.405
STARS 03 Sep 02:54:26 02:57:09 17° 61° (ENE) 03:00:00 437.465
PCSat 03 Sep 03:00:40 03:06:06 87° 303° (WNW) 03:11:35 145.827
Cosmos 2504 03 Sep 03:09:00 03:13:41 15° 311° (NW) 03:18:00 435.465 / 435.565
SWISSCUBE 03 Sep 03:11:52 03:16:22 41° 262° (W) 03:20:53 437.505
Gurwin Techsat 1B 03 Sep 03:16:47 03:21:09 26° 92° (E) 03:25:35 435.225
KKS-1 03 Sep 03:17:29 03:21:39 41° 69° (ENE) 03:25:53 437.445
RS-15 03 Sep 03:20:00 03:30:44 41° 250° (WSW) 03:41:33 29.354- 29.394
ITAMSAT 1 03 Sep 03:20:53 03:24:51 22° 91° (E) 03:28:56 435.822/435.867
GONETS M04 03 Sep 03:24:39 03:33:03 59° 92° (E) 03:41:36
O/OREOS (USA 219) 03 Sep 03:42:59 03:45:53 17° 45° (NE) 03:48:54 437.305
SO-50 03 Sep 03:48:13 03:52:12 24° 327° (NNW) 03:56:11 436.795
MOZHAYETS 4 03 Sep 03:49:11 03:51:50 16° 61° (ENE) 03:54:39
ITUPSAT 1 03 Sep 03:52:55 03:56:30 20° 269° (W) 03:59:58 437.325
Oscar 19 03 Sep 03:55:22 04:00:28 54° 290° (WNW) 04:05:30 437.125/150
AO-7 03 Sep 04:07:03 04:11:44 17° 84° (E) 04:16:53 29.400- 29.500
STARS 03 Sep 04:28:44 04:33:08 65° 258° (WSW) 04:37:35 437.465
Cosmos 2499 03 Sep 04:29:40 04:37:32 44° 87° (E) 04:45:48 435.465 / 435.565
JAS-2 03 Sep 04:32:09 04:39:06 58° 98° (E) 04:45:13 435.910
VERMONT LUNAR 03 Sep 04:45:52 04:48:02 19° 169° (S) 04:50:13 437.305
PCSat 03 Sep 04:46:11 04:50:21 21° 326° (NW) 04:54:26 145.827
KKS-1 03 Sep 04:54:50 04:58:28 23° 268° (W) 05:02:02 437.445
Gurwin Techsat 1B 03 Sep 04:56:17 05:01:25 49° 291° (WNW) 05:06:30 435.225
ITAMSAT 1 03 Sep 04:59:40 05:04:44 55° 290° (WNW) 05:09:47 435.822/435.867
O/OREOS (USA 219) 03 Sep 05:21:20 05:25:59 81° 248° (WSW) 05:30:34 437.305
GONETS M04 03 Sep 05:22:31 05:30:26 36° 295° (WNW) 05:38:18
MOZHAYETS 4 03 Sep 05:23:57 05:28:34 73° 258° (WSW) 05:33:11
SO-50 03 Sep 05:33:04 05:34:32 11° 351° (N) 05:35:57 436.795
CUBESAT XI-V 03 Sep 05:48:54 05:52:25 23° 64° (ENE) 05:56:02 437.345
HORYU 2 03 Sep 05:53:33 05:58:03 81° 104° (ESE) 06:02:29 437.375
AO-7 03 Sep 05:57:49 06:06:10 76° 107° (ESE) 06:14:27 29.400- 29.500
PHONESAT 2.4 03 Sep 06:17:09 06:19:19 16° 161° (SSE) 06:21:31 2401.200-2431.200
JAS-2 03 Sep 06:17:40 06:23:46 31° 301° (WNW) 06:29:11 435.910
VERMONT LUNAR 03 Sep 06:21:34 06:23:56 21° 185° (S) 06:26:17 437.305
Cosmos 2499 03 Sep 06:22:18 06:30:40 51° 289° (WNW) 06:39:16 435.465 / 435.565
STRAND 1 03 Sep 06:39:54 06:43:51 24° 62° (ENE) 06:47:55 437.568
PRISM 03 Sep 06:45:47 06:48:04 15° 61° (ENE) 06:50:29 437.425
YUBILEINY 03 Sep 06:47:49 06:52:50 17° 50° (NE) 06:58:16 435.215
Cubesat XI-IV 03 Sep 06:58:57 07:02:37 19° 89° (E) 07:06:26 437.490
SO-50 03 Sep 07:15:03 07:17:14 13° 16° (NNE) 07:19:29 436.795
CUBESAT XI-V 03 Sep 07:25:11 07:29:37 46° 262° (W) 07:34:03 437.345
HORYU 2 03 Sep 07:31:46 07:34:06 14° 301° (WNW) 07:36:17 437.375
CUTE-I 03 Sep 07:42:13 07:47:18 43° 98° (E) 07:52:23 437.470
Cosmos 2491 03 Sep 07:46:18 07:48:40 12° 71° (ENE) 07:51:42 435.465 / 435.565
AO-7 03 Sep 07:51:19 07:58:22 31° 307° (NW) 08:05:14 29.400- 29.500
PHONESAT 2.4 03 Sep 07:53:43 07:56:37 26° 178° (S) 07:59:31 2401.200-2431.200
VERMONT LUNAR 03 Sep 07:58:43 07:59:43 11° 201° (SSW) 08:00:41 437.305
STRAND 1 03 Sep 08:17:47 08:22:46 53° 260° (W) 08:27:46 437.568
PRISM 03 Sep 08:19:01 08:23:04 62° 258° (WSW) 08:27:08 437.425
PCSat 03 Sep 08:20:26 08:22:03 11° 17° (NNE) 08:23:45 145.827
Cosmos 2499 03 Sep 08:22:37 08:26:38 13° 315° (NW) 08:30:11 435.465 / 435.565
Cubesat XI-IV 03 Sep 08:37:58 08:43:16 66° 289° (WNW) 08:48:33 437.490
YUBILEINY 03 Sep 08:43:08 08:51:56 65° 76° (ENE) 09:00:41 435.215
AIST 1 03 Sep 08:48:59 08:53:10 62° 96° (E) 08:57:24
SO-50 03 Sep 08:54:49 08:59:18 33° 39° (NE) 09:03:44 436.795
Cosmos 2504 03 Sep 09:03:16 09:07:45 15° 49° (NE) 09:12:31 435.465 / 435.565
CUTE 1.7 + AOD 2 03 Sep 09:06:59 09:08:40 12° 86° (E) 09:10:33 437.475
BRITE-PL 03 Sep 09:07:29 09:12:58 59° 99° (E) 09:18:36 437.365/2234.400
CANX-2 03 Sep 09:20:24 09:23:24 19° 90° (E) 09:26:29 2200.000
CUTE-I 03 Sep 09:22:37 09:27:15 30° 296° (WNW) 09:31:48 437.470
GOMX 1 03 Sep 09:22:51 09:28:10 50° 98° (E) 09:33:31 467.674
DOVE 4 03 Sep 09:23:34 09:28:19 33° 93° (E) 09:33:03 437.250
ISS 03 Sep 09:28:50 09:31:56 44° 147° (SSE) 09:35:04 145.825
PHONESAT 2.4 03 Sep 09:31:23 09:33:57 20° 194° (SSW) 09:36:30 2401.200-2431.200
Cosmos 2491 03 Sep 09:35:22 09:43:47 59° 92° (E) 09:52:18 435.465 / 435.565
SEEDS 03 Sep 09:36:52 09:39:58 20° 91° (E) 09:43:08 437.485
CUSAT 1 03 Sep 09:46:41 09:52:07 21° 57° (ENE) 09:58:07 437.405
CINEMA 3 03 Sep 09:49:36 09:53:41 25° 91° (E) 09:57:46 145.822/145.860
COMPASS 1 03 Sep 09:54:00 09:57:21 24° 93° (E) 10:00:45 437.405
UNISAT 6 03 Sep 09:57:08 10:00:01 17° 61° (ENE) 10:03:03 437.425
Oscar 11 03 Sep 09:59:09 10:00:07 11° 85° (E) 10:01:20 145.826/435.025
AAUSAT CUBESAT 2 03 Sep 10:01:44 10:05:06 24° 93° (E) 10:08:31 437.432
PCSat 03 Sep 10:02:32 10:07:19 31° 42° (NE) 10:12:08 145.827
HO-68 03 Sep 10:05:07 10:12:09 53° 100° (E) 10:19:11 435.675
AUBIESAT-1 03 Sep 10:05:20 10:08:51 22° 58° (ENE) 10:12:21 437.475
M-CUBED/EXP-1 PRIME 03 Sep 10:12:47 10:16:50 29° 61° (ENE) 10:20:49 437.505
Cubesat XI-IV 03 Sep 10:20:26 10:22:30 12° 307° (NW) 10:24:20 437.490
TIGRISAT 03 Sep 10:23:21 10:27:14 27° 65° (ENE) 10:31:12 435.000
AIST 1 03 Sep 10:28:55 10:31:21 14° 296° (WNW) 10:33:38
DANDE 03 Sep 10:34:05 10:40:25 29° 63° (ENE) 10:47:37 436.750
DUCHIFAT 1 03 Sep 10:34:30 10:36:17 13° 59° (ENE) 10:38:14 145.980
POLYITAN 1 03 Sep 10:34:49 10:36:54 14° 60° (ENE) 10:39:10 437.675
SO-50 03 Sep 10:35:15 10:40:04 49° 239° (WSW) 10:44:43 436.795
POPSAT HIP 1 03 Sep 10:36:16 10:38:21 14° 60° (ENE) 10:40:37 437.405
YUBILEINY 03 Sep 10:40:42 10:48:15 32° 277° (W) 10:55:33 435.215
CUTE 1.7 + AOD 2 03 Sep 10:40:55 10:45:09 70° 286° (WNW) 10:49:20 437.475
ANTELSAT 03 Sep 10:41:04 10:45:26 39° 69° (ENE) 10:49:50 437.575/2403.000
ZACube-1 03 Sep 10:46:22 10:49:57 23° 92° (E) 10:53:31 437.345
BRITE-PL 03 Sep 10:46:38 10:51:09 26° 296° (WNW) 10:55:39 437.365/2234.400
FUNcube-1 03 Sep 10:50:24 10:54:04 25° 92° (E) 10:57:42 145.935
NANOSAT C BR1 03 Sep 10:51:45 10:54:41 19° 63° (ENE) 10:57:44 145.865
QB50P2 03 Sep 10:52:50 10:55:55 20° 64° (ENE) 10:59:07 145.880/145.840
Cosmos 2504 03 Sep 10:53:47 11:02:14 62° 75° (ENE) 11:10:11 435.465 / 435.565
CANX-2 03 Sep 10:55:32 10:59:35 44° 289° (WNW) 11:03:35 2200.000
CUBEBUG 2 03 Sep 10:57:56 11:02:31 50° 98° (E) 11:06:57 437.445
UWE-3 03 Sep 10:59:07 11:03:28 40° 97° (E) 11:07:41 435.000/436.395/437.385
DOVE 4 03 Sep 11:01:09 11:06:07 40° 292° (WNW) 11:10:59 437.250
GOMX 1 03 Sep 11:01:24 11:06:02 29° 295° (WNW) 11:10:37 467.674
ISS 03 Sep 11:05:11 11:08:21 48° 345° (NNW) 11:11:32 145.825
QB50P1 03 Sep 11:05:58 11:09:28 26° 66° (ENE) 11:13:03 145.935-145.965
HUMSAT D 03 Sep 11:08:54 11:11:23 16° 88° (E) 11:13:59 437.325/437.525
SEEDS 03 Sep 11:12:00 11:15:59 41° 289° (WNW) 11:19:53 437.485
CINEMA 3 03 Sep 11:26:18 11:31:06 45° 290° (WNW) 11:35:44 145.822/145.860
CUSAT 1 03 Sep 11:28:06 11:35:56 76° 77° (ENE) 11:44:12 437.405
COMPASS 1 03 Sep 11:29:19 11:33:07 34° 291° (WNW) 11:36:51 437.405
DX 1 03 Sep 11:30:43 11:33:10 15° 89° (E) 11:35:49 434.975-435.025
UNISAT 6 03 Sep 11:31:35 11:36:18 72° 259° (W) 11:41:01 437.425
Oscar 11 03 Sep 11:32:38 11:36:59 83° 285° (WNW) 11:41:17 145.826/435.025
Cosmos 2491 03 Sep 11:33:17 11:41:11 36° 295° (WNW) 11:49:01 435.465 / 435.565
AAUSAT CUBESAT 2 03 Sep 11:37:01 11:40:46 33° 291° (WNW) 11:44:28 437.432
AUBIESAT-1 03 Sep 11:38:33 11:43:13 57° 254° (WSW) 11:47:45 437.475
UKube-1 03 Sep 11:38:40 11:41:19 16° 90° (E) 11:44:08 .
DELFI C3 03 Sep 11:40:38 11:44:39 83° 103° (ESE) 11:48:38 145.870
PCSat 03 Sep 11:45:45 11:51:04 56° 242° (WSW) 11:56:21 145.827
M-CUBED/EXP-1 PRIME 03 Sep 11:46:52 11:51:26 42° 257° (WSW) 11:55:52 437.505
HO-68 03 Sep 11:53:13 11:59:43 37° 300° (WNW) 12:06:07 435.675
CUBEBUG 1 03 Sep 11:56:45 11:58:14 12° 86° (E) 11:59:58 437.445
TIGRISAT 03 Sep 11:59:21 12:03:48 41° 263° (W) 12:08:16 435.000
50 SAT 03 Sep 11:59:48 12:02:46 21° 92° (E) 12:05:46 437.505
ESTCUBE 1 03 Sep 12:01:20 12:04:05 16° 89° (E) 12:07:00 437.505/2401.250
BUGSAT 1 03 Sep 12:02:26 12:06:26 56° 72° (ENE) 12:10:31 437.445
AISAT 03 Sep 12:03:33 12:07:03 22° 92° (E) 12:10:37 437.250
DUCHIFAT 1 03 Sep 12:07:15 12:11:30 82° 257° (WSW) 12:15:48 145.980
POLYITAN 1 03 Sep 12:07:58 12:12:15 77° 257° (WSW) 12:16:36 437.675
POPSAT HIP 1 03 Sep 12:09:25 12:13:41 76° 257° (WSW) 12:18:00 437.405
DANDE 03 Sep 12:16:35 12:24:13 77° 261° (W) 12:32:45 436.750
ANTELSAT 03 Sep 12:18:17 12:22:19 27° 267° (W) 12:26:18 437.575/2403.000
ZACube-1 03 Sep 12:22:15 12:26:29 40° 290° (WNW) 12:30:35 437.345
NANOSAT C BR1 03 Sep 12:26:01 12:30:10 51° 260° (W) 12:34:22 145.865
FUNcube-1 03 Sep 12:26:20 12:30:31 38° 291° (WNW) 12:34:33 145.935
QB50P2 03 Sep 12:27:23 12:31:31 47° 261° (W) 12:35:41 145.880/145.840
VELOX 1 03 Sep 12:30:27 12:34:38 39° 97° (E) 12:38:51 145.980
CUBEBUG 2 03 Sep 12:35:16 12:38:53 22° 297° (WNW) 12:42:19 437.445
UWE-3 03 Sep 12:36:00 12:39:47 25° 295° (WNW) 12:43:26 435.000/436.395/437.385
QB50P1 03 Sep 12:41:15 12:45:12 35° 264° (W) 12:49:09 145.935-145.965
ISS 03 Sep 12:42:06 12:45:10 37° 5° (N) 12:48:15 145.825
HUMSAT D 03 Sep 12:43:21 12:47:32 55° 288° (WNW) 12:51:36 437.325/437.525
Cosmos 2504 03 Sep 12:46:38 12:53:59 33° 277° (W) 13:00:48 435.465 / 435.565
DX 1 03 Sep 13:05:32 13:09:54 62° 287° (WNW) 13:14:14 434.975-435.025
JAS-2 03 Sep 13:07:22 13:09:31 12° 44° (NE) 13:12:01 435.910
Oscar 11 03 Sep 13:11:18 13:12:30 11° 302° (WNW) 13:13:30 145.826/435.025
CUSAT 1 03 Sep 13:11:28 13:18:00 28° 274° (W) 13:24:32 437.405
UKube-1 03 Sep 13:13:34 13:17:51 57° 288° (WNW) 13:22:07 .
SPROUT 03 Sep 13:15:21 13:18:53 24° 93° (E) 13:22:28 437.525
DELFI C3 03 Sep 13:17:50 13:19:09 11° 300° (WNW) 13:20:17 145.870
AO-7 03 Sep 13:23:57 13:25:38 11° 31° (NNE) 13:27:39 29.400- 29.500
CUBEBUG 1 03 Sep 13:30:48 13:35:15 81° 286° (WNW) 13:39:41 437.445
GONETS M04 03 Sep 13:30:51 13:38:41 35° 65° (ENE) 13:46:39
50 SAT 03 Sep 13:33:52 13:37:24 34° 291° (WNW) 13:40:51 437.505
Oscar 19 03 Sep 13:36:19 13:41:11 44° 68° (ENE) 13:46:08 437.125/150
ESTCUBE 1 03 Sep 13:36:57 13:41:25 60° 287° (WNW) 13:45:50 437.505/2401.250
AISAT 03 Sep 13:39:33 13:43:49 43° 290° (WNW) 13:48:03 437.250
BUGSAT 1 03 Sep 13:39:54 13:42:19 15° 271° (W) 13:44:37 437.445
DANDE 03 Sep 14:01:21 14:06:36 19° 277° (W) 14:11:47 436.750
TISAT 1 03 Sep 14:07:18 14:11:27 47° 99° (E) 14:15:35 437.305
VELOX 1 03 Sep 14:07:19 14:11:02 26° 295° (WNW) 14:14:40 145.980
ITUPSAT 1 03 Sep 14:13:55 14:14:37 10° 84° (E) 14:15:38 437.325
Cosmos 2499 03 Sep 14:17:38 14:23:36 20° 54° (NE) 14:29:39 435.465 / 435.565
ISS 03 Sep 14:18:34 14:21:51 87° 20° (NNE) 14:25:06 145.825
Gurwin Techsat 1B 03 Sep 14:40:43 14:45:53 54° 70° (ENE) 14:51:05 435.225
ITAMSAT 1 03 Sep 14:41:39 14:46:33 46° 68° (ENE) 14:51:31 435.822/435.867
BEESAT 03 Sep 14:42:53 14:46:26 21° 91° (E) 14:50:06 436.000
JAS-2 03 Sep 14:45:36 14:52:46 42° 64° (ENE) 14:59:58 435.910
SPROUT 03 Sep 14:51:03 14:55:05 37° 291° (WNW) 14:59:03 437.525
BEESAT 3 03 Sep 15:00:59 15:04:31 30° 118° (ESE) 15:08:08 437.485
SWISSCUBE 03 Sep 15:08:43 15:13:11 39° 98° (E) 15:17:38 437.505
AO-7 03 Sep 15:08:50 15:16:04 35° 55° (NE) 15:23:24 29.400- 29.500
CUBEBUG 1 03 Sep 15:09:32 15:10:56 11° 302° (WNW) 15:12:07 437.445
Oscar 19 03 Sep 15:16:18 15:20:45 28° 267° (W) 15:25:09 437.125/150
BEESAT 2 03 Sep 15:17:25 15:21:06 33° 118° (ESE) 15:24:50 435.950
HORYU 2 03 Sep 15:20:26 15:22:54 15° 60° (ENE) 15:25:32 437.375
GONETS M04 03 Sep 15:27:30 15:36:08 62° 268° (W) 15:44:46
RS-15 03 Sep 15:36:49 15:45:26 30° 105° (ESE) 15:54:41 29.354- 29.394
TISAT 1 03 Sep 15:43:44 15:46:55 20° 296° (WNW) 15:50:01 437.305
ITUPSAT 1 03 Sep 15:48:35 15:53:23 83° 105° (ESE) 15:58:10 437.325
ISS 03 Sep 15:55:38 15:57:55 18° 222° (SW) 16:00:09 145.825
